This is the latest recevied weather packets stored in our database for station/object K6GMW. If no packets are shown the sender has not sent any weather packets the latest 1 day(s).
| Time | Temp. | Humidity | Pressure | Rain* | Wind** | Luminosity | Snow |
|---|---|---|---|---|---|---|---|
| 1777976002 | 20.56° C | 84% | 1007.5 hPa | 0 mm | 4.92 m/s, 169° | 0 W/m² | - |
| 1777975698 | 20.56° C | 84% | 1007.3 hPa | 0 mm | 3.58 m/s, 172° | 0 W/m² | - |
| 1777975395 | 20.56° C | 84% | 1007.3 hPa | 0 mm | 4.02 m/s, 167° | 0 W/m² | - |
| 1777975091 | 20.56° C | 84% | 1007.2 hPa | 0 mm | 3.58 m/s, 160° | 0 W/m² | - |
| 1777974789 | 20.56° C | 84% | 1007.2 hPa | 0 mm | 5.36 m/s, 196° | 0 W/m² | - |
| 1777974484 | 20.56° C | 84% | 1007.2 hPa | 0 mm | 3.13 m/s, 170° | 0 W/m² | - |
| 1777974181 | 20.56° C | 83% | 1007.4 hPa | 0 mm | 4.02 m/s, 163° | 0 W/m² | - |
| 1777973877 | 20.56° C | 83% | 1007.5 hPa | 0 mm | 3.13 m/s, 164° | 0 W/m² | - |
| 1777973575 | 20.56° C | 83% | 1007.4 hPa | 0 mm | 4.47 m/s, 158° | 0 W/m² | - |
| 1777973271 | 20.56° C | 83% | 1007.4 hPa | 0 mm | 2.68 m/s, 172° | 0 W/m² | - |
| 1777972970 | 20.56° C | 83% | 1007.4 hPa | 0 mm | 3.13 m/s, 167° | 0 W/m² | - |
| 1777972667 | 20.56° C | 83% | 1007.5 hPa | 0 mm | 2.68 m/s, 168° | 0 W/m² | - |
| 1777972365 | 20.56° C | 83% | 1007.6 hPa | 0 mm | 2.68 m/s, 159° | 0 W/m² | - |
| 1777972062 | 20.56° C | 83% | 1007.5 hPa | 0 mm | 2.24 m/s, 180° | 0 W/m² | - |
| 1777971760 | 20.56° C | 83% | 1007.7 hPa | 0 mm | 3.58 m/s, 160° | 0 W/m² | - |
| 1777971457 | 20.56° C | 83% | 1007.7 hPa | 0 mm | 4.47 m/s, 185° | 0 W/m² | - |
| 1777971156 | 20.56° C | 83% | 1007.8 hPa | 0 mm | 3.58 m/s, 167° | 0 W/m² | - |
| 1777970852 | 20.56° C | 83% | 1007.8 hPa | 0 mm | 3.58 m/s, 194° | 0 W/m² | - |
| 1777970552 | 20.56° C | 83% | 1007.8 hPa | 0 mm | 2.24 m/s, 165° | 0 W/m² | - |
| 1777970248 | 20.56° C | 83% | 1007.7 hPa | 0 mm | 4.02 m/s, 169° | 0 W/m² | - |
| 1777969945 | 20.56° C | 82% | 1008 hPa | 0 mm | 4.02 m/s, 147° | 0 W/m² | - |
| 1777969641 | 20.56° C | 82% | 1008 hPa | 0 mm | 4.02 m/s, 163° | 0 W/m² | - |
| 1777969338 | 20.56° C | 82% | 1008.1 hPa | 0 mm | 2.68 m/s, 163° | 0 W/m² | - |
| 1777969033 | 20.56° C | 82% | 1008.1 hPa | 0 mm | 1.79 m/s, 174° | 0 W/m² | - |
| 1777968731 | 20.56° C | 82% | 1008.1 hPa | 0 mm | 2.24 m/s, 185° | 0 W/m² | - |
* Rain latest hour (hover to see other rain measurements)
** Current wind speed in m/s (hover to see current wind gust speed)